Powrót do katalogu

SL-12 R/B(2)

AktywnyHEO
NORAD 27404·ROCKET BODY·🇷🇺 Russia

Wystrzelony Mar 30, 2002 z Baikonur Cosmodrome

Loading…

Następne Przeloty (najbliższe 24 godziny)

TLE

ŚwieżeSource: Space-Track

Epoka: Sep 14, 2026, 13:33 UTC

1 27404U 02016B   26257.56486949 -.00000127  00000-0  00000-0 0  9990
2 27404  25.4336 311.8628 6224966 186.0772 159.5923  2.06290510184357

Śledź SL-12 R/B(2) w czasie rzeczywistym z AllMySat

Download on the App Store